Back to Top

Language: 

My Weather Underground Personal Weather Station Historical Data with Graphs...

Delerius Weather Station Historical Data
Daily Summary for July 28, 2017 Units:  English    Metric   Both
« Previous Day
Next Day »
Daily Weekly Monthly Yearly Custom
  High: Low: Average:
Temperature: 69.3 °F 54.1 °F 59.9 °F
Dew Point: 60.2 °F 50.5 °F 54.9 °F
Humidity: 96 % 61 % 84 %
Wind Speed: 17.0 mph 0.0 mph 8.5 mph
Wind Gust: 31.0 mph - -
Wind:- - SW
Pressure: 29.64 in 29.52 in -
Precipitation: 0.21 in    
Historical Graphs
 
 
Tabular Data for July 28, 2017
Time Temperature Dew Point Pressure Wind Wind Speed Wind Gust Humidity Rainfall Rate (Hourly) solar Conditions
00:04 56.7 °F 51.9 °F 29.59 in SW 7.0 mph 14.0 mph 84 % 0.00 in 0 W/m2
00:09 56.7 °F 51.9 °F 29.59 in SW 8.0 mph 14.0 mph 84 % 0.00 in 0 W/m2
00:14 56.8 °F 52.1 °F 29.59 in SW 7.0 mph 14.0 mph 84 % 0.00 in 0 W/m2
00:19 56.7 °F 51.9 °F 29.59 in SW 5.0 mph 10.0 mph 84 % 0.00 in 0 W/m2
00:24 56.7 °F 52.2 °F 29.59 in SSW 4.0 mph 8.0 mph 85 % 0.00 in 0 W/m2
00:29 56.7 °F 52.2 °F 29.59 in SSW 4.0 mph 9.0 mph 85 % 0.00 in 0 W/m2
00:34 56.7 °F 52.2 °F 29.59 in SW 3.0 mph 9.0 mph 85 % 0.00 in 0 W/m2
00:39 56.5 °F 52.0 °F 29.59 in SW 2.0 mph 5.0 mph 85 % 0.00 in 0 W/m2
00:44 56.7 °F 52.2 °F 29.59 in SW 4.0 mph 11.0 mph 85 % 0.00 in 0 W/m2
00:49 56.7 °F 51.9 °F 29.59 in SW 7.0 mph 12.0 mph 84 % 0.00 in 0 W/m2
00:54 56.7 °F 51.6 °F 29.59 in SW 8.0 mph 19.0 mph 83 % 0.00 in 0 W/m2
00:59 56.8 °F 51.7 °F 29.58 in SW 8.0 mph 19.0 mph 83 % 0.00 in 0 W/m2
01:04 56.8 °F 51.7 °F 29.59 in WSW 9.0 mph 24.0 mph 83 % 0.00 in 0 W/m2
01:09 57.0 °F 51.6 °F 29.58 in WSW 13.0 mph 24.0 mph 82 % 0.00 in 0 W/m2
01:14 57.0 °F 51.2 °F 29.59 in WSW 14.0 mph 24.0 mph 81 % 0.00 in 0 W/m2
01:19 57.0 °F 51.2 °F 29.59 in WSW 12.0 mph 22.0 mph 81 % 0.00 in 0 W/m2
01:24 57.0 °F 51.2 °F 29.59 in WSW 12.0 mph 21.0 mph 81 % 0.00 in 0 W/m2
01:29 57.0 °F 51.2 °F 29.59 in WSW 12.0 mph 22.0 mph 81 % 0.00 in 0 W/m2
01:34 57.0 °F 51.2 °F 29.59 in WSW 12.0 mph 22.0 mph 81 % 0.00 in 0 W/m2
01:39 57.0 °F 51.6 °F 29.59 in WSW 11.0 mph 20.0 mph 82 % 0.00 in 0 W/m2
01:44 56.8 °F 51.4 °F 29.59 in WSW 11.0 mph 18.0 mph 82 % 0.00 in 0 W/m2
01:49 56.8 °F 51.4 °F 29.60 in WSW 10.0 mph 15.0 mph 82 % 0.00 in 0 W/m2
01:54 56.7 °F 51.2 °F 29.60 in WSW 9.0 mph 15.0 mph 82 % 0.00 in 0 W/m2
01:59 56.7 °F 51.2 °F 29.60 in WSW 9.0 mph 16.0 mph 82 % 0.00 in 0 W/m2
02:05 56.7 °F 51.2 °F 29.60 in WSW 9.0 mph 19.0 mph 82 % 0.00 in 0 W/m2
02:10 56.5 °F 51.1 °F 29.60 in SW 10.0 mph 20.0 mph 82 % 0.00 in 0 W/m2
02:15 56.5 °F 51.1 °F 29.60 in WSW 10.0 mph 20.0 mph 82 % 0.00 in 0 W/m2
02:20 56.5 °F 51.1 °F 29.60 in WSW 10.0 mph 18.0 mph 82 % 0.00 in 0 W/m2
02:25 56.5 °F 51.1 °F 29.60 in WSW 9.0 mph 15.0 mph 82 % 0.00 in 0 W/m2
02:30 56.5 °F 51.1 °F 29.60 in WSW 8.0 mph 14.0 mph 82 % 0.00 in 0 W/m2
02:35 56.5 °F 51.1 °F 29.59 in SW 9.0 mph 15.0 mph 82 % 0.00 in 0 W/m2
02:40 56.5 °F 51.1 °F 29.59 in SW 9.0 mph 15.0 mph 82 % 0.00 in 0 W/m2
02:45 56.3 °F 50.9 °F 29.59 in SW 9.0 mph 13.0 mph 82 % 0.00 in 0 W/m2
02:50 56.1 °F 50.7 °F 29.59 in SW 9.0 mph 13.0 mph 82 % 0.00 in 0 W/m2
02:55 56.1 °F 51.0 °F 29.59 in SW 8.0 mph 14.0 mph 83 % 0.00 in 0 W/m2
03:00 55.9 °F 50.9 °F 29.59 in SW 9.0 mph 14.0 mph 83 % 0.00 in 0 W/m2
03:05 55.9 °F 50.9 °F 29.59 in WSW 8.0 mph 14.0 mph 83 % 0.00 in 0 W/m2
03:10 55.8 °F 50.7 °F 29.59 in SW 8.0 mph 14.0 mph 83 % 0.00 in 0 W/m2
03:15 55.8 °F 50.7 °F 29.59 in SW 8.0 mph 14.0 mph 83 % 0.00 in 0 W/m2
03:20 55.6 °F 50.5 °F 29.60 in SW 7.0 mph 12.0 mph 83 % 0.00 in 0 W/m2
03:25 55.6 °F 50.8 °F 29.60 in SW 7.0 mph 11.0 mph 84 % 0.00 in 0 W/m2
03:30 55.6 °F 50.8 °F 29.60 in SW 7.0 mph 11.0 mph 84 % 0.00 in 0 W/m2
03:35 55.6 °F 50.8 °F 29.60 in SW 7.0 mph 11.0 mph 84 % 0.00 in 0 W/m2
03:40 55.6 °F 50.8 °F 29.60 in SW 6.0 mph 11.0 mph 84 % 0.00 in 0 W/m2
03:45 55.6 °F 50.8 °F 29.60 in SW 7.0 mph 12.0 mph 84 % 0.00 in 0 W/m2
03:50 55.6 °F 50.8 °F 29.60 in SW 7.0 mph 12.0 mph 84 % 0.00 in 0 W/m2
03:55 55.6 °F 50.8 °F 29.60 in SW 7.0 mph 11.0 mph 84 % 0.00 in 0 W/m2
04:00 55.8 °F 51.0 °F 29.60 in SW 8.0 mph 12.0 mph 84 % 0.00 in 0 W/m2
04:05 55.8 °F 51.0 °F 29.60 in SW 8.0 mph 12.0 mph 84 % 0.00 in 0 W/m2
04:10 55.8 °F 51.3 °F 29.60 in SW 8.0 mph 13.0 mph 85 % 0.00 in 0 W/m2
04:15 55.6 °F 51.5 °F 29.60 in SW 7.0 mph 13.0 mph 86 % 0.00 in 0 W/m2
04:20 55.2 °F 51.4 °F 29.60 in SW 7.0 mph 10.0 mph 87 % 0.01 in 0 W/m2
04:25 55.0 °F 51.5 °F 29.60 in SW 5.0 mph 9.0 mph 88 % 0.01 in 0 W/m2
04:31 54.7 °F 51.2 °F 29.60 in WSW 5.0 mph 9.0 mph 88 % 0.01 in 0 W/m2
04:36 54.5 °F 51.3 °F 29.60 in WSW 5.0 mph 8.0 mph 89 % 0.01 in 0 W/m2
04:41 54.3 °F 51.1 °F 29.60 in WSW 5.0 mph 10.0 mph 89 % 0.01 in 0 W/m2
04:46 54.3 °F 51.1 °F 29.60 in SW 6.0 mph 10.0 mph 89 % 0.01 in 0 W/m2
04:51 54.3 °F 51.1 °F 29.60 in SW 7.0 mph 10.0 mph 89 % 0.01 in 0 W/m2
04:56 54.3 °F 51.1 °F 29.60 in SW 7.0 mph 12.0 mph 89 % 0.01 in 0 W/m2
05:01 54.3 °F 51.1 °F 29.60 in SW 7.0 mph 13.0 mph 89 % 0.01 in 0 W/m2
05:06 54.3 °F 51.1 °F 29.60 in SW 7.0 mph 13.0 mph 89 % 0.01 in 0 W/m2
05:11 54.3 °F 51.1 °F 29.60 in SW 7.0 mph 13.0 mph 89 % 0.01 in 0 W/m2
05:16 54.3 °F 51.1 °F 29.60 in SW 8.0 mph 13.0 mph 89 % 0.00 in 0 W/m2
05:21 54.3 °F 51.1 °F 29.60 in SW 7.0 mph 12.0 mph 89 % 0.00 in 5 W/m2
05:26 54.3 °F 51.1 °F 29.60 in SW 8.0 mph 11.0 mph 89 % 0.00 in 9 W/m2
05:31 54.1 °F 51.0 °F 29.60 in SW 8.0 mph 12.0 mph 89 % 0.00 in 14 W/m2
05:36 54.1 °F 51.0 °F 29.60 in SW 7.0 mph 12.0 mph 89 % 0.00 in 18 W/m2
05:41 54.1 °F 51.0 °F 29.60 in SW 8.0 mph 14.0 mph 89 % 0.00 in 18 W/m2
05:46 54.3 °F 51.1 °F 29.59 in SW 9.0 mph 14.0 mph 89 % 0.00 in 19 W/m2
05:51 54.3 °F 51.1 °F 29.60 in SW 8.0 mph 13.0 mph 89 % 0.00 in 25 W/m2
05:56 54.7 °F 51.2 °F 29.60 in SW 7.0 mph 13.0 mph 88 % 0.00 in 28 W/m2
06:01 54.7 °F 51.2 °F 29.60 in SW 8.0 mph 12.0 mph 88 % 0.00 in 37 W/m2
06:03 54.7 °F 51.2 °F 29.60 in SW 8.0 mph 13.0 mph 88 % 0.00 in 35 W/m2
06:08 54.9 °F 51.4 °F 29.60 in SW 9.0 mph 13.0 mph 88 % 0.00 in 35 W/m2
06:13 55.0 °F 51.2 °F 29.60 in SW 9.0 mph 14.0 mph 87 % 0.00 in 39 W/m2
06:18 55.2 °F 51.4 °F 29.61 in SW 9.0 mph 16.0 mph 87 % 0.00 in 37 W/m2
06:23 55.4 °F 51.6 °F 29.61 in SW 9.0 mph 16.0 mph 87 % 0.00 in 42 W/m2
06:28 55.2 °F 51.4 °F 29.61 in SW 9.0 mph 16.0 mph 87 % 0.00 in 44 W/m2
06:33 55.4 °F 51.6 °F 29.61 in SW 8.0 mph 16.0 mph 87 % 0.00 in 54 W/m2
06:38 55.2 °F 51.4 °F 29.61 in SW 7.0 mph 12.0 mph 87 % 0.00 in 58 W/m2
06:43 55.2 °F 51.4 °F 29.61 in SW 8.0 mph 12.0 mph 87 % 0.00 in 67 W/m2
06:48 55.2 °F 51.7 °F 29.61 in WSW 7.0 mph 12.0 mph 88 % 0.00 in 60 W/m2
06:53 55.2 °F 51.7 °F 29.61 in WSW 6.0 mph 11.0 mph 88 % 0.00 in 70 W/m2
06:58 55.2 °F 51.4 °F 29.61 in SW 7.0 mph 13.0 mph 87 % 0.00 in 77 W/m2
07:03 55.4 °F 51.6 °F 29.61 in SW 8.0 mph 13.0 mph 87 % 0.00 in 76 W/m2
07:08 55.6 °F 51.5 °F 29.61 in SW 7.0 mph 12.0 mph 86 % 0.00 in 79 W/m2
07:13 55.8 °F 51.6 °F 29.61 in SW 8.0 mph 14.0 mph 86 % 0.00 in 70 W/m2
07:18 55.8 °F 51.6 °F 29.61 in SW 8.0 mph 18.0 mph 86 % 0.00 in 128 W/m2
07:23 55.9 °F 51.8 °F 29.61 in WSW 8.0 mph 18.0 mph 86 % 0.00 in 100 W/m2
07:28 56.1 °F 51.7 °F 29.61 in WSW 8.0 mph 16.0 mph 85 % 0.00 in 102 W/m2
07:33 56.1 °F 51.7 °F 29.61 in WSW 9.0 mph 16.0 mph 85 % 0.00 in 104 W/m2
07:38 56.3 °F 51.8 °F 29.61 in SW 9.0 mph 16.0 mph 85 % 0.00 in 125 W/m2
07:43 56.5 °F 51.7 °F 29.61 in WSW 9.0 mph 16.0 mph 84 % 0.00 in 149 W/m2
07:48 56.8 °F 52.1 °F 29.61 in WSW 8.0 mph 15.0 mph 84 % 0.00 in 151 W/m2
07:53 57.0 °F 51.9 °F 29.62 in WSW 7.0 mph 12.0 mph 83 % 0.00 in 141 W/m2
07:58 57.4 °F 51.9 °F 29.62 in WSW 8.0 mph 19.0 mph 82 % 0.00 in 132 W/m2
08:03 57.6 °F 51.8 °F 29.62 in WSW 9.0 mph 19.0 mph 81 % 0.00 in 130 W/m2
08:08 57.6 °F 51.8 °F 29.62 in WSW 10.0 mph 15.0 mph 81 % 0.00 in 171 W/m2
08:13 57.7 °F 51.6 °F 29.62 in SW 11.0 mph 20.0 mph 80 % 0.00 in 199 W/m2
08:18 58.1 °F 52.0 °F 29.62 in SW 13.0 mph 23.0 mph 80 % 0.00 in 174 W/m2
08:23 58.3 °F 51.8 °F 29.62 in SW 14.0 mph 24.0 mph 79 % 0.00 in 156 W/m2
08:28 58.3 °F 51.8 °F 29.62 in WSW 13.0 mph 24.0 mph 79 % 0.00 in 116 W/m2
08:33 58.5 °F 52.3 °F 29.62 in WSW 13.0 mph 20.0 mph 80 % 0.00 in 425 W/m2
08:38 59.0 °F 52.5 °F 29.62 in SW 13.0 mph 21.0 mph 79 % 0.00 in 466 W/m2
08:43 59.4 °F 52.1 °F 29.62 in SW 13.0 mph 25.0 mph 77 % 0.00 in 461 W/m2
08:48 59.7 °F 52.5 °F 29.62 in SW 13.0 mph 25.0 mph 77 % 0.00 in 473 W/m2
08:49 59.7 °F 52.5 °F 29.62 in WSW 13.0 mph 25.0 mph 77 % 0.00 in 476 W/m2
08:54 60.1 °F 52.1 °F 29.63 in SW 14.0 mph 25.0 mph 75 % 0.00 in 508 W/m2
08:59 60.4 °F 52.8 °F 29.63 in SW 13.0 mph 25.0 mph 76 % 0.00 in 540 W/m2
09:04 61.0 °F 52.6 °F 29.63 in WSW 13.0 mph 24.0 mph 74 % 0.00 in 538 W/m2
09:09 61.3 °F 52.6 °F 29.64 in WSW 15.0 mph 26.0 mph 73 % 0.00 in 577 W/m2
09:14 61.7 °F 52.2 °F 29.64 in WSW 16.0 mph 27.0 mph 71 % 0.00 in 624 W/m2
09:19 61.9 °F 52.0 °F 29.64 in WSW 17.0 mph 27.0 mph 70 % 0.00 in 629 W/m2
09:24 61.9 °F 52.0 °F 29.64 in WSW 17.0 mph 27.0 mph 70 % 0.00 in 659 W/m2
09:29 62.1 °F 52.2 °F 29.64 in WSW 16.0 mph 24.0 mph 70 % 0.00 in 842 W/m2
09:34 62.4 °F 52.5 °F 29.64 in WSW 14.0 mph 23.0 mph 70 % 0.00 in 251 W/m2
09:39 62.1 °F 52.5 °F 29.64 in WSW 14.0 mph 23.0 mph 71 % 0.00 in 248 W/m2
09:45 61.3 °F 52.6 °F 29.64 in WSW 13.0 mph 23.0 mph 73 % 0.00 in 357 W/m2
09:50 61.2 °F 52.1 °F 29.64 in WSW 11.0 mph 23.0 mph 72 % 0.00 in 318 W/m2
09:55 61.5 °F 52.4 °F 29.64 in WSW 10.0 mph 19.0 mph 72 % 0.00 in 432 W/m2
10:00 62.1 °F 52.2 °F 29.64 in WSW 11.0 mph 21.0 mph 70 % 0.00 in 360 W/m2
10:05 61.9 °F 52.0 °F 29.64 in SW 11.0 mph 21.0 mph 70 % 0.00 in 429 W/m2
10:10 62.1 °F 52.9 °F 29.64 in SW 10.0 mph 18.0 mph 72 % 0.00 in 207 W/m2
10:15 62.4 °F 52.9 °F 29.64 in SW 9.0 mph 16.0 mph 71 % 0.00 in 696 W/m2
10:20 63.0 °F 52.6 °F 29.64 in WSW 10.0 mph 20.0 mph 69 % 0.00 in 809 W/m2
10:25 63.5 °F 53.1 °F 29.64 in SW 11.0 mph 20.0 mph 69 % 0.00 in 800 W/m2
10:30 64.2 °F 52.6 °F 29.64 in WSW 11.0 mph 18.0 mph 66 % 0.00 in 788 W/m2
10:35 64.8 °F 53.1 °F 29.64 in WSW 12.0 mph 19.0 mph 66 % 0.00 in 881 W/m2
10:40 65.1 °F 52.2 °F 29.64 in WSW 12.0 mph 20.0 mph 63 % 0.00 in 1021 W/m2
10:45 65.1 °F 52.6 °F 29.64 in SW 11.0 mph 20.0 mph 64 % 0.00 in 341 W/m2
10:50 64.8 °F 51.4 °F 29.64 in SW 11.0 mph 22.0 mph 62 % 0.00 in 316 W/m2
10:55 64.4 °F 52.4 °F 29.63 in SW 10.0 mph 22.0 mph 65 % 0.00 in 900 W/m2
11:00 64.9 °F 51.6 °F 29.64 in WSW 10.0 mph 20.0 mph 62 % 0.00 in 341 W/m2
11:05 65.1 °F 51.3 °F 29.63 in WSW 12.0 mph 21.0 mph 61 % 0.00 in 232 W/m2
11:10 65.1 °F 52.2 °F 29.63 in WSW 10.0 mph 21.0 mph 63 % 0.00 in 443 W/m2
11:15 65.5 °F 52.1 °F 29.63 in WSW 10.0 mph 16.0 mph 62 % 0.00 in 413 W/m2
11:20 65.8 °F 52.5 °F 29.63 in WSW 10.0 mph 18.0 mph 62 % 0.00 in 385 W/m2
11:25 65.8 °F 52.0 °F 29.63 in WSW 12.0 mph 23.0 mph 61 % 0.00 in 425 W/m2
11:30 65.8 °F 52.5 °F 29.63 in WSW 13.0 mph 23.0 mph 62 % 0.00 in 1058 W/m2
11:35 66.6 °F 52.7 °F 29.63 in WSW 13.0 mph 21.0 mph 61 % 0.00 in 1046 W/m2
11:40 66.4 °F 53.0 °F 29.63 in SW 11.0 mph 20.0 mph 62 % 0.00 in 387 W/m2
11:45 66.4 °F 53.4 °F 29.63 in SW 10.0 mph 19.0 mph 63 % 0.00 in 318 W/m2
11:50 66.7 °F 53.3 °F 29.63 in SW 11.0 mph 21.0 mph 62 % 0.00 in 313 W/m2
11:55 66.7 °F 53.7 °F 29.63 in WSW 11.0 mph 21.0 mph 63 % 0.00 in 461 W/m2
12:00 66.7 °F 54.2 °F 29.63 in SW 11.0 mph 16.0 mph 64 % 0.00 in 243 W/m2
12:05 66.7 °F 54.6 °F 29.63 in SW 11.0 mph 19.0 mph 65 % 0.00 in 953 W/m2
12:10 67.3 °F 55.1 °F 29.62 in SW 11.0 mph 19.0 mph 65 % 0.00 in 1120 W/m2
12:15 68.2 °F 55.5 °F 29.62 in SW 11.0 mph 18.0 mph 64 % 0.00 in 1069 W/m2
12:20 68.5 °F 54.6 °F 29.63 in SW 16.0 mph 31.0 mph 61 % 0.00 in 974 W/m2
12:25 68.7 °F 54.7 °F 29.62 in SW 17.0 mph 31.0 mph 61 % 0.00 in 1055 W/m2
12:35 68.7 °F 55.6 °F 29.62 in SW 13.0 mph 26.0 mph 63 % 0.00 in 1009 W/m2
12:40 69.1 °F 55.1 °F 29.62 in SW 14.0 mph 24.0 mph 61 % 0.00 in 431 W/m2
12:45 68.9 °F 54.9 °F 29.62 in SW 13.0 mph 22.0 mph 61 % 0.00 in 250 W/m2
12:50 68.9 °F 54.9 °F 29.62 in SW 11.0 mph 22.0 mph 61 % 0.00 in 1044 W/m2
12:55 68.9 °F 54.9 °F 29.62 in SW 13.0 mph 25.0 mph 61 % 0.00 in 1102 W/m2
13:00 68.7 °F 56.0 °F 29.62 in SW 15.0 mph 25.0 mph 64 % 0.00 in 1141 W/m2
13:05 68.9 °F 55.8 °F 29.62 in SW 12.0 mph 20.0 mph 63 % 0.00 in 1069 W/m2
13:10 69.3 °F 56.1 °F 29.62 in SW 13.0 mph 22.0 mph 63 % 0.00 in 1069 W/m2
13:15 69.3 °F 55.7 °F 29.62 in SW 14.0 mph 24.0 mph 62 % 0.00 in 420 W/m2
13:20 68.7 °F 56.0 °F 29.62 in SW 15.0 mph 24.0 mph 64 % 0.00 in 538 W/m2
13:25 68.2 °F 56.4 °F 29.62 in SSW 15.0 mph 23.0 mph 66 % 0.00 in 573 W/m2
13:30 67.8 °F 56.5 °F 29.62 in SSW 14.0 mph 21.0 mph 67 % 0.00 in 332 W/m2
13:35 67.5 °F 56.5 °F 29.62 in SSW 12.0 mph 23.0 mph 68 % 0.00 in 188 W/m2
13:40 66.7 °F 56.6 °F 29.63 in SW 13.0 mph 24.0 mph 70 % 0.00 in 84 W/m2
13:45 65.7 °F 56.8 °F 29.64 in SW 13.0 mph 24.0 mph 73 % 0.00 in 91 W/m2
13:50 64.6 °F 57.6 °F 29.64 in SW 13.0 mph 23.0 mph 78 % 0.00 in 232 W/m2
14:00 63.1 °F 57.9 °F 29.64 in SW 11.0 mph 18.0 mph 83 % 0.00 in 151 W/m2
14:06 62.4 °F 57.8 °F 29.64 in SW 11.0 mph 16.0 mph 85 % 0.00 in 135 W/m2
14:11 62.1 °F 58.1 °F 29.64 in SW 9.0 mph 15.0 mph 87 % 0.01 in 158 W/m2
14:16 61.5 °F 57.9 °F 29.64 in SW 7.0 mph 13.0 mph 88 % 0.01 in 206 W/m2
14:21 61.5 °F 58.2 °F 29.64 in SW 6.0 mph 9.0 mph 89 % 0.02 in 169 W/m2
14:26 61.5 °F 58.9 °F 29.63 in SSW 5.0 mph 9.0 mph 91 % 0.02 in 153 W/m2
14:31 61.3 °F 58.7 °F 29.64 in SSW 5.0 mph 10.0 mph 91 % 0.02 in 120 W/m2
14:36 61.3 °F 58.7 °F 29.64 in SW 6.0 mph 10.0 mph 91 % 0.02 in 113 W/m2
14:41 61.2 °F 58.5 °F 29.63 in SSW 6.0 mph 9.0 mph 91 % 0.04 in 79 W/m2
14:46 61.0 °F 58.6 °F 29.63 in SSW 4.0 mph 8.0 mph 92 % 0.06 in 56 W/m2
14:51 60.8 °F 58.5 °F 29.63 in SSW 3.0 mph 6.0 mph 92 % 0.06 in 49 W/m2
14:56 60.6 °F 58.6 °F 29.63 in SSW 1.0 mph 5.0 mph 93 % 0.07 in 72 W/m2
15:01 60.6 °F 58.6 °F 29.62 in Calm   2.0 mph 93 % 0.07 in 81 W/m2
15:11 60.8 °F 58.8 °F 29.62 in Calm   4.0 mph 93 % 0.06 in 97 W/m2
15:16 60.8 °F 58.8 °F 29.62 in South 2.0 mph 7.0 mph 93 % 0.06 in 160 W/m2
15:17 60.8 °F 58.8 °F 29.62 in South 3.0 mph 9.0 mph 93 % 0.06 in 123 W/m2
15:22 60.8 °F 58.8 °F 29.62 in SSW 5.0 mph 10.0 mph 93 % 0.06 in 54 W/m2
15:27 60.8 °F 58.8 °F 29.62 in SSW 6.0 mph 10.0 mph 93 % 0.06 in 51 W/m2
15:32 60.8 °F 58.8 °F 29.62 in SSW 7.0 mph 13.0 mph 93 % 0.06 in 56 W/m2
15:37 61.0 °F 58.9 °F 29.62 in SSW 7.0 mph 13.0 mph 93 % 0.05 in 211 W/m2
15:42 61.2 °F 59.1 °F 29.61 in SSW 5.0 mph 10.0 mph 93 % 0.03 in 301 W/m2
15:47 61.3 °F 59.6 °F 29.61 in SSW 6.0 mph 8.0 mph 94 % 0.02 in 287 W/m2
15:52 61.9 °F 60.1 °F 29.61 in SSW 6.0 mph 9.0 mph 94 % 0.02 in 197 W/m2
15:57 62.1 °F 60.0 °F 29.61 in SSW 6.0 mph 11.0 mph 93 % 0.01 in 160 W/m2
16:02 62.1 °F 60.0 °F 29.62 in SSW 6.0 mph 11.0 mph 93 % 0.01 in 121 W/m2
16:07 62.2 °F 60.2 °F 29.62 in SSW 8.0 mph 13.0 mph 93 % 0.01 in 97 W/m2
16:12 62.2 °F 60.2 °F 29.62 in SW 8.0 mph 13.0 mph 93 % 0.02 in 188 W/m2
16:17 62.2 °F 60.2 °F 29.61 in SW 8.0 mph 14.0 mph 93 % 0.02 in 229 W/m2
16:22 62.2 °F 60.2 °F 29.61 in SW 8.0 mph 15.0 mph 93 % 0.01 in 158 W/m2
16:27 62.2 °F 59.9 °F 29.61 in SW 9.0 mph 15.0 mph 92 % 0.01 in 155 W/m2
16:37 62.2 °F 59.9 °F 29.61 in SW 10.0 mph 20.0 mph 92 % 0.01 in 186 W/m2
16:47 62.4 °F 59.8 °F 29.61 in SW 9.0 mph 16.0 mph 91 % 0.01 in 74 W/m2
16:52 62.4 °F 59.4 °F 29.61 in SW 9.0 mph 16.0 mph 90 % 0.01 in 56 W/m2
16:57 62.4 °F 59.4 °F 29.60 in SW 8.0 mph 16.0 mph 90 % 0.01 in 113 W/m2
17:02 62.6 °F 59.9 °F 29.61 in SW 6.0 mph 12.0 mph 91 % 0.01 in 111 W/m2
17:07 62.6 °F 59.9 °F 29.61 in SW 6.0 mph 12.0 mph 91 % 0.01 in 88 W/m2
17:12 62.4 °F 59.4 °F 29.61 in SW 8.0 mph 13.0 mph 90 % 0.00 in 91 W/m2
17:17 62.4 °F 59.8 °F 29.60 in SW 9.0 mph 14.0 mph 91 % 0.00 in 95 W/m2
17:22 62.4 °F 59.8 °F 29.60 in SW 9.0 mph 19.0 mph 91 % 0.00 in 107 W/m2
17:27 62.2 °F 59.6 °F 29.60 in SSW 8.0 mph 19.0 mph 91 % 0.00 in 72 W/m2
17:32 62.1 °F 59.4 °F 29.60 in SSW 8.0 mph 14.0 mph 91 % 0.01 in 67 W/m2
17:37 62.1 °F 59.4 °F 29.60 in SSW 8.0 mph 14.0 mph 91 % 0.01 in 54 W/m2
17:42 61.9 °F 59.2 °F 29.60 in SSW 8.0 mph 15.0 mph 91 % 0.01 in 49 W/m2
17:47 61.5 °F 58.9 °F 29.60 in SSW 9.0 mph 20.0 mph 91 % 0.01 in 44 W/m2
17:52 61.5 °F 59.2 °F 29.60 in SSW 9.0 mph 20.0 mph 92 % 0.01 in 39 W/m2
17:57 61.3 °F 59.0 °F 29.60 in SSW 8.0 mph 15.0 mph 92 % 0.01 in 39 W/m2
18:02 61.2 °F 58.8 °F 29.60 in SSW 9.0 mph 14.0 mph 92 % 0.02 in 32 W/m2
18:08 61.2 °F 58.8 °F 29.60 in SSW 9.0 mph 14.0 mph 92 % 0.02 in 35 W/m2
18:13 61.0 °F 58.6 °F 29.59 in SSW 7.0 mph 13.0 mph 92 % 0.02 in 39 W/m2
18:18 61.0 °F 58.6 °F 29.59 in SSW 8.0 mph 13.0 mph 92 % 0.02 in 37 W/m2
18:28 60.6 °F 58.6 °F 29.59 in SSW 7.0 mph 14.0 mph 93 % 0.03 in 56 W/m2
18:33 60.6 °F 58.6 °F 29.58 in SSW 8.0 mph 14.0 mph 93 % 0.02 in 62 W/m2
18:38 60.6 °F 58.6 °F 29.58 in SSW 7.0 mph 13.0 mph 93 % 0.02 in 67 W/m2
18:43 60.6 °F 58.6 °F 29.59 in SSW 7.0 mph 12.0 mph 93 % 0.02 in 47 W/m2
18:48 60.6 °F 58.6 °F 29.58 in SSW 8.0 mph 15.0 mph 93 % 0.02 in 46 W/m2
18:53 60.6 °F 58.6 °F 29.58 in SSW 9.0 mph 15.0 mph 93 % 0.02 in 51 W/m2
18:58 60.6 °F 58.6 °F 29.58 in SSW 9.0 mph 16.0 mph 93 % 0.02 in 49 W/m2
19:03 60.4 °F 58.4 °F 29.57 in SSW 9.0 mph 16.0 mph 93 % 0.02 in 58 W/m2
19:08 60.4 °F 58.4 °F 29.57 in SSW 9.0 mph 14.0 mph 93 % 0.02 in 37 W/m2
19:13 60.3 °F 57.9 °F 29.57 in SSW 9.0 mph 18.0 mph 92 % 0.02 in 26 W/m2
19:23 60.1 °F 57.7 °F 29.58 in SSW 10.0 mph 16.0 mph 92 % 0.02 in 21 W/m2
19:28 60.1 °F 58.0 °F 29.57 in SSW 10.0 mph 16.0 mph 93 % 0.01 in 14 W/m2
19:33 60.1 °F 58.0 °F 29.57 in SSW 8.0 mph 15.0 mph 93 % 0.01 in 11 W/m2
19:38 60.1 °F 58.0 °F 29.57 in SSW 8.0 mph 15.0 mph 93 % 0.01 in 9 W/m2
19:43 60.1 °F 58.0 °F 29.57 in South 6.0 mph 15.0 mph 93 % 0.02 in 5 W/m2
19:48 60.1 °F 58.0 °F 29.57 in South 3.0 mph 10.0 mph 93 % 0.03 in 7 W/m2
19:53 60.1 °F 58.0 °F 29.56 in South 2.0 mph 8.0 mph 93 % 0.05 in 7 W/m2
19:58 59.9 °F 57.9 °F 29.56 in SSE 3.0 mph 9.0 mph 93 % 0.05 in 9 W/m2
20:03 59.7 °F 58.0 °F 29.56 in SSE 3.0 mph 9.0 mph 94 % 0.05 in 12 W/m2
20:08 59.7 °F 58.0 °F 29.56 in South 2.0 mph 5.0 mph 94 % 0.05 in 11 W/m2
20:13 59.5 °F 57.8 °F 29.56 in South 2.0 mph 5.0 mph 94 % 0.05 in 11 W/m2
20:18 59.5 °F 57.8 °F 29.55 in South 2.0 mph 5.0 mph 94 % 0.05 in 7 W/m2
20:23 59.5 °F 58.1 °F 29.55 in South 2.0 mph 5.0 mph 95 % 0.05 in 5 W/m2
20:28 59.5 °F 58.1 °F 29.55 in South 1.0 mph 5.0 mph 95 % 0.05 in 5 W/m2
20:33 59.5 °F 58.1 °F 29.55 in South 2.0 mph 8.0 mph 95 % 0.05 in 5 W/m2
20:38 59.5 °F 58.1 °F 29.55 in South 3.0 mph 8.0 mph 95 % 0.06 in 9 W/m2
20:43 59.5 °F 58.1 °F 29.54 in South 3.0 mph 10.0 mph 95 % 0.04 in 5 W/m2
20:48 59.5 °F 58.1 °F 29.54 in South 4.0 mph 10.0 mph 95 % 0.03 in 0 W/m2
20:53 59.5 °F 58.1 °F 29.54 in South 5.0 mph 9.0 mph 95 % 0.02 in 0 W/m2
20:58 59.5 °F 58.1 °F 29.54 in SSE 6.0 mph 12.0 mph 95 % 0.02 in 0 W/m2
21:03 59.5 °F 58.1 °F 29.53 in SSE 6.0 mph 12.0 mph 95 % 0.02 in 0 W/m2
21:08 59.5 °F 58.1 °F 29.53 in South 7.0 mph 11.0 mph 95 % 0.02 in 0 W/m2
21:13 59.5 °F 58.1 °F 29.53 in South 7.0 mph 11.0 mph 95 % 0.02 in 0 W/m2
21:18 59.5 °F 58.1 °F 29.53 in South 7.0 mph 13.0 mph 95 % 0.02 in 0 W/m2
21:23 59.5 °F 58.1 °F 29.53 in South 7.0 mph 13.0 mph 95 % 0.02 in 0 W/m2
21:28 59.5 °F 58.1 °F 29.52 in South 7.0 mph 14.0 mph 95 % 0.02 in 0 W/m2
21:33 59.5 °F 58.1 °F 29.53 in South 6.0 mph 14.0 mph 95 % 0.02 in 0 W/m2
21:38 59.5 °F 58.4 °F 29.53 in South 6.0 mph 12.0 mph 96 % 0.01 in 0 W/m2
21:44 59.7 °F 58.6 °F 29.53 in SSW 7.0 mph 15.0 mph 96 % 0.01 in 0 W/m2
21:49 59.7 °F 58.6 °F 29.52 in SSW 8.0 mph 15.0 mph 96 % 0.01 in 0 W/m2
21:54 59.7 °F 58.6 °F 29.53 in SSW 8.0 mph 16.0 mph 96 % 0.02 in 0 W/m2
21:59 59.9 °F 58.8 °F 29.53 in SSW 8.0 mph 16.0 mph 96 % 0.01 in 0 W/m2
22:04 59.9 °F 58.8 °F 29.52 in SSW 7.0 mph 13.0 mph 96 % 0.02 in 0 W/m2
22:09 59.9 °F 58.8 °F 29.52 in SSW 8.0 mph 13.0 mph 96 % 0.02 in 0 W/m2
22:14 59.9 °F 58.8 °F 29.52 in SSW 7.0 mph 13.0 mph 96 % 0.02 in 0 W/m2
22:24 60.1 °F 58.9 °F 29.52 in SSW 8.0 mph 14.0 mph 96 % 0.02 in 0 W/m2
22:29 60.1 °F 58.9 °F 29.52 in SSW 7.0 mph 14.0 mph 96 % 0.02 in 0 W/m2
22:34 60.1 °F 58.9 °F 29.52 in SSW 7.0 mph 14.0 mph 96 % 0.02 in 0 W/m2
22:39 59.9 °F 58.8 °F 29.52 in SW 7.0 mph 12.0 mph 96 % 0.02 in 0 W/m2
22:44 59.9 °F 58.8 °F 29.52 in SW 7.0 mph 11.0 mph 96 % 0.02 in 0 W/m2
22:49 59.9 °F 58.8 °F 29.52 in SW 7.0 mph 12.0 mph 96 % 0.02 in 0 W/m2
22:54 60.1 °F 58.9 °F 29.52 in SW 7.0 mph 12.0 mph 96 % 0.01 in 0 W/m2
22:59 60.1 °F 58.9 °F 29.52 in SW 7.0 mph 12.0 mph 96 % 0.01 in 0 W/m2
23:04 60.1 °F 58.9 °F 29.52 in SW 7.0 mph 11.0 mph 96 % 0.00 in 0 W/m2
23:09 60.1 °F 58.6 °F 29.52 in WSW 5.0 mph 10.0 mph 95 % 0.00 in 0 W/m2
23:14 60.1 °F 58.6 °F 29.52 in WSW 5.0 mph 9.0 mph 95 % 0.00 in 0 W/m2
23:19 60.1 °F 58.6 °F 29.52 in West 5.0 mph 9.0 mph 95 % 0.00 in 0 W/m2
23:24 60.3 °F 58.8 °F 29.53 in West 7.0 mph 13.0 mph 95 % 0.00 in 0 W/m2
23:29 60.3 °F 58.8 °F 29.53 in WSW 7.0 mph 13.0 mph 95 % 0.00 in 0 W/m2
23:34 60.4 °F 59.0 °F 29.53 in West 7.0 mph 13.0 mph 95 % 0.00 in 0 W/m2
23:39 60.4 °F 59.0 °F 29.53 in West 8.0 mph 13.0 mph 95 % 0.00 in 0 W/m2
23:44 60.4 °F 59.0 °F 29.53 in West 8.0 mph 12.0 mph 95 % 0.00 in 0 W/m2
23:49 60.6 °F 59.2 °F 29.54 in West 9.0 mph 15.0 mph 95 % 0.00 in 0 W/m2
23:54 60.6 °F 58.9 °F 29.54 in West 10.0 mph 15.0 mph 94 % 0.00 in 0 W/m2
23:59 60.6 °F 58.9 °F 29.55 in West 8.0 mph 14.0 mph 94 % 0.00 in 0 W/m2
Delerius-Weather
Compliments of Weather Underground - 2.25 mb

Data updates at regular intervals.